STARLINK-11691, 64236

Orbit data source: Space-Track

STARLINK-11691, 64236 is a payload satellite owned by SpaceX/Seattle (US) in LEO that was launched on Tue, 03 Jun 2025 UTC via an FALCON 9 launch vehicle from the Air Force Eastern Test Range (AFETR). Payload-class satellites include a variety of spacecraft equipped with specific instruments for various scientific and technological missions. These include communications satellites like Starlink; space stations such as the ISS; scientific satellites like the Hubble; Earth observation satellites from companies like Planet Labs, Umbra, and HawkEye 360; GPS; miniature CubeSats for education and research; and military/defense satellites.

Loading next visibility...
Identifier
64236, 2025-119D
Orbit
LEO
Country
Flag of USUS
Related business
Manufacturer
SpaceX/Seattle
Mission
Operational Commercial Communications
Bus & Motor
STARLINK V2MD, Unknown motor
Mass
960 kg wet, ~910 kg dry
Launch date (UTC)
2025-06-03 (1 year ago)
Launch vehicle
FALCON 9
Launch site
Air Force Eastern Test Range (AFETR)
Object type
Payload
Rocket body
Debris
Shape & HBR
Box + 2 Pan, 18.1 m
Radar Cross Section
36.964 m², Large (>1 m²)

Expand to show TLE details & history
Last TLE update: 11 hours ago

TLE from 11 hours ago
0 STARLINK-11691
1 64236U 25119D   26171.42174984  .00176853  00000-0  13477-2 0  9999
2 64236  43.0005 309.7136 0002083 253.6831 106.3808 15.70926713 61403
Epoch: 2026-06-20T10:07Z
TLE epoch observation values (Epoch: 2026-06-20T10:07:19.186Z)
Latitude
0.00002°
Longitude
-110.75293°
Altitude
356.414 km
Speed
7.697 km/s
True Right ascension
20h 38m 51s
True Declination
0° 00' 00"
Sunlit
Object was in full shadow at epoch
Visualization orbit readout
Latitude
Unknown
Longitude
Unknown
Altitude
Unknown
Speed
Unknown
Apparent Right ascension
Unknown
Apparent Declination
Unknown
Sunlit
N/A
Visualization observer readout
Local Sidereal Time
08:32:50
Azimuth
Unknown
Elevation
Unknown
Doppler factor
Unknown
Orbital elements
Apogee altitude
359.632 km
Perigee altitude
356.826 km
Semi-major axis
6,736.366 km
Eccentricity
0.00021
Inclination
43.0005°
RAAN
309.7136°
Arg. of periapsis
253.6831°
True anomaly
106.4037°
Mean anomaly
106.3808°
Eccentric anomaly
106.39225°
Mean motion
3.92559 °/min
Orbital period
91.71 mins
BSTAR
0.0013477
Loading maneuver chart data...
Computing Atmospheric mass density...
Loading historical data...
Loading historical data...
Loading historical data...
Loading historical data...
Loading historical data...
Loading historical data...
Loading historical data...

Documentation

Showing up to 5 results
|